Monticello, AR

11:05 AM CDT on May 27, 2017 (GMT -0500)
Monticello Municipal-Ellis

Weather History for KLLQ - March, 2013

Change the Weather History Date:

Friday, March 15, 2013

  Actual Average Record
Temperature  
Mean Temperature 66 °F -  
Max Temperature 80 °F 66 °F 87 °F (2016)
Min Temperature 53 °F 41 °F 19 °F (1988)
Cooling Degree Days 1    
Growing Degree Days 16 (Base 50)    
Moisture  
Dew Point 43 °F    
Average Humidity 45    
Maximum Humidity 66    
Minimum Humidity 31    
Precipitation  
Precipitation 0.00 in - - ()
Sea Level Pressure  
Sea Level Pressure 30.07 in    
Wind  
Wind Speed 10 mph (SW)    
Max Wind Speed 15 mph    
Max Gust Speed 24 mph    
Visibility 10 miles    
Events      
Averages and records for this station are not official NWS values.
T = Trace of Precipitation, MM = Missing Value Source: NWS Daily Summary

Daily Weather History Graph

Daily Weather History Graph

Search for Another Location

Airport or City:

Trip Planner

Search our weather history database for the weather conditions in past years. The results will help you decide how hot, cold, wet, or windy it might be!

Date:

Astronomy

Mar. 15, 2013 Rise Set
Actual Time 7:17 AM CDT 7:15 PM CDT
Civil Twilight 6:52 AM CDT 7:39 PM CDT
Nautical Twilight 6:23 AM CDT 8:08 PM CDT
Astronomical Twilight 5:54 AM CDT 8:37 PM CDT
Moon 9:20 AM CDT (3/15) 11:15 PM CDT (3/15)
Length of Visible Light 12h 47m
Length of Day
11h 57m
Waxing Crescent, 15% of the Moon is Illuminated
Mar 15
Waxing Crescent
Mar 19
First Quarter
Mar 27
Full
Apr 2
Last Quarter
Apr 10
New

Hourly Weather History & Observations

Time (CDT) Temp. Dew Point Humidity Pressure Visibility Wind Dir Wind Speed Gust Speed Precip Events Conditions
12:53 AM 60.1 °F 37.0 °F 42% 30.19 in 10.0 mi SW 8.1 mph - N/A   Clear
1:53 AM 59.0 °F 37.0 °F 44% 30.18 in 10.0 mi SW 9.2 mph - N/A   Clear
2:53 AM 57.0 °F 37.9 °F 49% 30.17 in 10.0 mi WSW 9.2 mph - N/A   Clear
3:53 AM 55.9 °F 39.0 °F 53% 30.15 in 10.0 mi WSW 8.1 mph 17.3 mph N/A   Clear
4:53 AM 55.0 °F 39.0 °F 55% 30.16 in 10.0 mi SW 10.4 mph - N/A   Clear
5:53 AM 54.0 °F 39.9 °F 59% 30.15 in 10.0 mi SW 8.1 mph - N/A   Clear
6:53 AM 53.1 °F 41.0 °F 64% 30.16 in 10.0 mi WSW 9.2 mph - N/A   Clear
7:53 AM 53.1 °F 42.1 °F 66% 30.16 in 10.0 mi WSW 9.2 mph - 0.00 in   Clear
8:53 AM 55.9 °F 43.0 °F 62% 30.17 in 10.0 mi WSW 11.5 mph - N/A   Clear
9:53 AM 61.0 °F 46.0 °F 58% 30.16 in 10.0 mi West 10.4 mph - N/A   Clear
10:53 AM 66.0 °F 48.0 °F 52% 30.15 in 10.0 mi WSW 12.7 mph 19.6 mph N/A   Clear
11:53 AM 69.1 °F 48.9 °F 49% 30.14 in 10.0 mi SW 9.2 mph 17.3 mph N/A   Clear
12:53 PM 73.9 °F 50.0 °F 43% 30.12 in 10.0 mi WSW 8.1 mph - N/A   Clear
1:53 PM 77.0 °F 48.9 °F 37% 30.07 in 10.0 mi SW 12.7 mph 16.1 mph N/A   Clear
2:53 PM 77.0 °F 48.9 °F 37% 30.03 in 10.0 mi SSW 9.2 mph 17.3 mph N/A   Clear
3:53 PM 79.0 °F 46.9 °F 32% 30.00 in 10.0 mi SSW 12.7 mph 19.6 mph N/A   Clear
4:53 PM 79.0 °F 46.0 °F 31% 29.98 in 10.0 mi WSW 10.4 mph 24.2 mph N/A   Clear
5:53 PM 78.1 °F 45.0 °F 31% 29.96 in 10.0 mi SW 15.0 mph 21.9 mph N/A   Clear
6:53 PM 75.0 °F 45.0 °F 34% 29.96 in 10.0 mi SSW 12.7 mph - N/A   Clear
7:53 PM 71.1 °F 44.1 °F 38% 29.95 in 10.0 mi SSW 8.1 mph - N/A   Clear
8:53 PM 70.0 °F 42.1 °F 36% 29.95 in 10.0 mi SSW 11.5 mph - N/A   Clear
9:53 PM 69.1 °F 41.0 °F 36% 29.95 in 10.0 mi SSW 11.5 mph - N/A   Clear
10:53 PM 66.9 °F 41.0 °F 39% 29.95 in 10.0 mi SW 8.1 mph - N/A   Clear
11:53 PM 64.9 °F 43.0 °F 45% 29.94 in 10.0 mi SSW 9.2 mph - N/A   Clear